No particular awareness of the weather is required.    There are no Weather-warnings


Meteo18 Weather Cam more information Meteo18 Weather Cam


Thunder radar more information blitzortung!


Rain radar more information rain snow radar


Visit our other weather sites:

Template documentation
and downloads

And another site



Weather Underground History page Text

Daily Summary for September 7, 2017 Units:  English    Metric   Both
« Previous Day
Next Day »
Daily Weekly Monthly Yearly Custom
  High: Low: Average:
Temperature: 66.9 °F 54.3 °F 61.2 °F
Dew Point: 52.5 °F 49.5 °F 50.9 °F
Humidity: 86 % 56 % 70 %
Wind Speed: 9 mph 0 mph 2.4 mph
Wind Gust: 15 mph - -
Wind:- - West
Pressure: 30.2 in 30.1 in -
Precipitation: 0 in    
Historical Graphs
 
 
Tabular Data for September 7, 2017
Time Temperature Dew Point Pressure Wind Wind Speed Wind Gust Humidity Rainfall Rate (Hourly)
00:02 61.9 °F 50.4 °F 30.2 in West 2 mph 7 mph 66 % 0 in
00:07 61.7 °F 50.2 °F 30.2 in NW 2 mph 5 mph 66 % 0 in
00:12 61.7 °F 50.7 °F 30.2 in West 5 mph 5 mph 67 % 0 in
00:17 61.5 °F 50.5 °F 30.2 in WNW 1 mph 7 mph 67 % 0 in
00:22 61.5 °F 50.5 °F 30.2 in WNW 3 mph 7 mph 67 % 0 in
00:27 61.5 °F 50.5 °F 30.2 in NW 3 mph 7 mph 67 % 0 in
00:32 61.5 °F 50.5 °F 30.2 in West 5 mph 7 mph 67 % 0 in
00:42 61.5 °F 50.5 °F 30.2 in NW 4 mph 7 mph 67 % 0 in
00:47 61.3 °F 50.4 °F 30.2 in WNW 4 mph 7 mph 67 % 0 in
00:52 61.3 °F 50.4 °F 30.2 in West 3 mph 7 mph 67 % 0 in
00:57 61.3 °F 50.4 °F 30.2 in WNW 3 mph 6 mph 67 % 0 in
01:02 61.3 °F 50.4 °F 30.2 in NW 2 mph 7 mph 67 % 0 in
01:07 61.3 °F 50.4 °F 30.2 in West 3 mph 7 mph 67 % 0 in
01:12 61.3 °F 50.7 °F 30.2 in WNW 4 mph 8 mph 68 % 0 in
01:17 61.3 °F 50.7 °F 30.2 in West 8 mph 10 mph 68 % 0 in
01:22 61.2 °F 50.5 °F 30.2 in WNW 4 mph 10 mph 68 % 0 in
01:27 61.2 °F 50.5 °F 30.2 in WNW 3 mph 10 mph 68 % 0 in
01:32 61.2 °F 50.5 °F 30.2 in West 3 mph 9 mph 68 % 0 in
01:37 61 °F 50.4 °F 30.2 in West 4 mph 8 mph 68 % 0 in
01:42 60.8 °F 50.2 °F 30.2 in NW 4 mph 6 mph 68 % 0 in
01:47 60.8 °F 50.5 °F 30.2 in WNW 4 mph 7 mph 69 % 0 in
01:52 60.8 °F 50.2 °F 30.2 in WNW 5 mph 9 mph 68 % 0 in
01:57 60.4 °F 50.2 °F 30.2 in NW 3 mph 9 mph 69 % 0 in
02:02 60.3 °F 50.4 °F 30.2 in WNW 4 mph 9 mph 70 % 0 in
02:12 60.1 °F 50.2 °F 30.2 in WNW 5 mph 7 mph 70 % 0 in
02:17 59.9 °F 50.2 °F 30.2 in WNW 2 mph 7 mph 70 % 0 in
02:22 59.9 °F 50.5 °F 30.2 in WNW 1 mph 7 mph 71 % 0 in
02:27 59.9 °F 50.5 °F 30.2 in WNW 4 mph 5 mph 71 % 0 in
02:32 59.7 °F 50.4 °F 30.2 in WNW 1 mph 6 mph 71 % 0 in
02:37 59.5 °F 50.2 °F 30.2 in NW 2 mph 6 mph 71 % 0 in
02:42 59.5 °F 50.2 °F 30.2 in WNW 3 mph 6 mph 71 % 0 in
02:52 59.5 °F 50.5 °F 30.2 in West 1 mph 5 mph 72 % 0 in
02:57 59.5 °F 50.5 °F 30.2 in Calm   4 mph 72 % 0 in
03:02 59.4 °F 50.4 °F 30.2 in WNW 1 mph 4 mph 72 % 0 in
03:07 59.4 °F 50.4 °F 30.2 in Calm   4 mph 72 % 0 in
03:12 59.4 °F 50.4 °F 30.2 in WNW 1 mph 4 mph 72 % 0 in
03:17 59.2 °F 50.5 °F 30.2 in WNW 2 mph 4 mph 73 % 0 in
03:22 59.2 °F 50.5 °F 30.2 in Calm   3 mph 73 % 0 in
03:27 59.2 °F 50.5 °F 30.2 in WNW 1 mph 3 mph 73 % 0 in
03:32 59 °F 50.4 °F 30.2 in West 2 mph 3 mph 73 % 0 in
03:37 59 °F 50.4 °F 30.2 in WNW 1 mph 3 mph 73 % 0 in
03:42 58.8 °F 50.2 °F 30.2 in Calm   3 mph 73 % 0 in
03:52 58.8 °F 50.5 °F 30.2 in Calm   3 mph 74 % 0 in
04:02 58.8 °F 50.5 °F 30.2 in WNW 4 mph 4 mph 74 % 0 in
04:12 58.6 °F 50.4 °F 30.2 in Calm   4 mph 74 % 0 in
04:17 58.6 °F 50.7 °F 30.2 in WNW 1 mph 4 mph 75 % 0 in
04:22 58.5 °F 50.5 °F 30.2 in WNW 1 mph 3 mph 75 % 0 in
04:27 58.3 °F 50.4 °F 30.2 in NW 1 mph 3 mph 75 % 0 in
04:32 58.1 °F 50.5 °F 30.2 in WNW 1 mph 3 mph 76 % 0 in
04:37 57.9 °F 50.4 °F 30.2 in Calm   4 mph 76 % 0 in
04:42 57.7 °F 50.5 °F 30.2 in Calm   4 mph 77 % 0 in
04:47 57.7 °F 50.5 °F 30.2 in NNW 1 mph 4 mph 77 % 0 in
04:52 57.6 °F 50.4 °F 30.2 in NW 2 mph 4 mph 77 % 0 in
04:57 57.6 °F 50.4 °F 30.2 in NNW 4 mph 4 mph 77 % 0 in
05:02 57.4 °F 50.5 °F 30.2 in NW 1 mph 4 mph 78 % 0 in
05:07 57 °F 50.2 °F 30.2 in NW 1 mph 4 mph 78 % 0 in
05:13 56.8 °F 50.4 °F 30.2 in NNW 1 mph 4 mph 79 % 0 in
05:22 56.8 °F 50.4 °F 30.2 in Calm   3 mph 79 % 0 in
05:27 56.7 °F 50.2 °F 30.2 in Calm   3 mph 79 % 0 in
05:32 56.7 °F 50.2 °F 30.2 in Calm   4 mph 79 % 0 in
05:37 56.7 °F 50.5 °F 30.2 in Calm   4 mph 80 % 0 in
05:42 56.5 °F 50.4 °F 30.2 in WNW 3 mph 4 mph 80 % 0 in
05:47 56.1 °F 50 °F 30.2 in Calm   3 mph 80 % 0 in
05:52 56.1 °F 50.4 °F 30.2 in NW 1 mph 3 mph 81 % 0 in
05:57 55.8 °F 50 °F 30.2 in WNW 1 mph 3 mph 81 % 0 in
06:02 55.6 °F 50.2 °F 30.2 in Calm   2 mph 82 % 0 in
06:12 55 °F 50 °F 30.2 in Calm   2 mph 83 % 0 in
06:17 55 °F 50 °F 30.2 in WNW 1 mph 2 mph 83 % 0 in
06:22 55 °F 50 °F 30.2 in Calm   2 mph 83 % 0 in
06:27 55 °F 50 °F 30.2 in WNW 1 mph 2 mph 83 % 0 in
06:32 54.9 °F 50.2 °F 30.2 in Calm   2 mph 84 % 0 in
06:37 54.7 °F 50 °F 30.2 in Calm   2 mph 84 % 0 in
06:42 54.9 °F 50.2 °F 30.2 in WNW 1 mph 2 mph 84 % 0 in
06:52 54.9 °F 50.2 °F 30.2 in WNW 1 mph 3 mph 84 % 0 in
06:57 54.9 °F 50.2 °F 30.2 in Calm   3 mph 84 % 0 in
07:02 54.7 °F 50.2 °F 30.2 in WNW 1 mph 3 mph 85 % 0 in
07:07 54.7 °F 50.2 °F 30.2 in Calm   3 mph 85 % 0 in
07:12 54.3 °F 49.8 °F 30.2 in West 1 mph 1 mph 85 % 0 in
07:17 54.5 °F 50 °F 30.2 in Calm   1 mph 85 % 0 in
07:22 54.3 °F 49.8 °F 30.2 in Calm   1 mph 85 % 0 in
07:32 54.3 °F 50.2 °F 30.2 in Calm     86 % 0 in
07:37 54.3 °F 50.2 °F 30.2 in Calm     86 % 0 in
07:42 54.3 °F 50.2 °F 30.2 in Calm     86 % 0 in
07:47 54.3 °F 50.2 °F 30.2 in Calm     86 % 0 in
07:52 54.3 °F 50.2 °F 30.2 in Calm     86 % 0 in
07:57 54.5 °F 50.4 °F 30.2 in Calm     86 % 0 in
08:02 54.7 °F 50.5 °F 30.2 in Calm     86 % 0 in
08:07 54.7 °F 50.5 °F 30.2 in Calm   1 mph 86 % 0 in
08:12 54.9 °F 50.7 °F 30.2 in Calm   1 mph 86 % 0 in
08:17 54.9 °F 50.7 °F 30.2 in Calm   1 mph 86 % 0 in
08:22 55 °F 50.9 °F 30.2 in Calm   1 mph 86 % 0 in
08:27 55.2 °F 50.7 °F 30.2 in Calm   1 mph 85 % 0 in
08:32 55.6 °F 51.1 °F 30.2 in Calm   1 mph 85 % 0 in
08:37 55.8 °F 51.3 °F 30.2 in Calm   1 mph 85 % 0 in
08:42 55.9 °F 51.3 °F 30.2 in Calm   1 mph 84 % 0 in
08:47 55.9 °F 50.9 °F 30.2 in West 1 mph 1 mph 83 % 0 in
08:57 56.1 °F 51.1 °F 30.2 in WNW 2 mph 2 mph 83 % 0 in
09:02 56.3 °F 51.3 °F 30.2 in Calm   2 mph 83 % 0 in
09:07 56.5 °F 51.4 °F 30.2 in Calm   2 mph 83 % 0 in
09:12 56.7 °F 51.6 °F 30.2 in Calm   2 mph 83 % 0 in
09:17 56.8 °F 51.4 °F 30.2 in Calm   1 mph 82 % 0 in
09:27 57.2 °F 51.8 °F 30.2 in NW 1 mph 2 mph 82 % 0 in
09:32 57.4 °F 51.6 °F 30.2 in WNW 1 mph 2 mph 81 % 0 in
09:42 57.7 °F 52 °F 30.2 in Calm   2 mph 81 % 0 in
09:47 58.1 °F 52 °F 30.2 in Calm   2 mph 80 % 0 in
09:52 58.3 °F 51.8 °F 30.2 in Calm   2 mph 79 % 0 in
09:57 58.6 °F 51.8 °F 30.2 in NW 1 mph 2 mph 78 % 0 in
10:02 58.8 °F 51.6 °F 30.2 in WSW 3 mph 5 mph 77 % 0 in
10:07 59.2 °F 51.3 °F 30.2 in NW 1 mph 6 mph 75 % 0 in
10:12 59.2 °F 50.9 °F 30.2 in WNW 2 mph 6 mph 74 % 0 in
10:17 59.4 °F 51.4 °F 30.2 in NNW 1 mph 6 mph 75 % 0 in
10:22 59.5 °F 50.9 °F 30.2 in WNW 4 mph 6 mph 73 % 0 in
10:32 59.5 °F 51.3 °F 30.2 in WNW 2 mph 7 mph 74 % 0 in
10:37 59.7 °F 51.4 °F 30.2 in WNW 1 mph 7 mph 74 % 0 in
10:42 60.1 °F 51.8 °F 30.2 in NW 1 mph 5 mph 74 % 0 in
10:47 60.1 °F 51.8 °F 30.2 in Calm   3 mph 74 % 0 in
10:52 60.3 °F 51.6 °F 30.2 in WSW 3 mph 3 mph 73 % 0 in
10:57 60.4 °F 51.8 °F 30.2 in WSW 4 mph 5 mph 73 % 0 in
11:02 61.2 °F 52.5 °F 30.2 in West 3 mph 6 mph 73 % 0 in
11:07 61.3 °F 52.2 °F 30.2 in Calm   6 mph 72 % 0 in
11:12 61.7 °F 51.8 °F 30.2 in WSW 1 mph 6 mph 70 % 0 in
11:17 62.1 °F 51.8 °F 30.2 in West 4 mph 6 mph 69 % 0 in
11:22 61.9 °F 51.3 °F 30.2 in SW 5 mph 7 mph 68 % 0 in
11:27 61.9 °F 51.6 °F 30.2 in WSW 7 mph 9 mph 69 % 0 in
11:32 61.9 °F 51.6 °F 30.2 in West 2 mph 9 mph 69 % 0 in
11:42 62.1 °F 51.8 °F 30.2 in WNW 3 mph 8 mph 69 % 0 in
11:52 62.4 °F 51.8 °F 30.2 in West 5 mph 10 mph 68 % 0 in
11:57 62.2 °F 51.6 °F 30.2 in West 6 mph 10 mph 68 % 0 in
12:02 62.4 °F 52.2 °F 30.2 in WSW 2 mph 8 mph 69 % 0 in
12:07 63.1 °F 52 °F 30.2 in West 4 mph 8 mph 67 % 0 in
12:12 62.8 °F 51.6 °F 30.2 in West 5 mph 9 mph 67 % 0 in
12:17 63.1 °F 52.3 °F 30.2 in West 5 mph 10 mph 68 % 0 in
12:22 63.3 °F 51.4 °F 30.2 in North 3 mph 10 mph 65 % 0 in
12:32 63.3 °F 51.8 °F 30.2 in West 5 mph 9 mph 66 % 0 in
12:37 63.5 °F 52 °F 30.2 in WSW 5 mph 9 mph 66 % 0 in
12:42 63.9 °F 51.4 °F 30.2 in West 4 mph 9 mph 64 % 0 in
12:47 63.5 °F 51.1 °F 30.2 in West 8 mph 9 mph 64 % 0 in
12:52 63.1 °F 51.3 °F 30.2 in WNW 1 mph 10 mph 65 % 0 in
12:57 63.1 °F 51.6 °F 30.2 in West 8 mph 10 mph 66 % 0 in
13:02 62.8 °F 51.6 °F 30.2 in WSW 6 mph 11 mph 67 % 0 in
13:07 62.8 °F 51.3 °F 30.2 in West 8 mph 11 mph 66 % 0 in
13:12 62.8 °F 51.3 °F 30.2 in West 6 mph 11 mph 66 % 0 in
13:17 62.8 °F 52 °F 30.2 in WSW 5 mph 12 mph 68 % 0 in
13:22 62.8 °F 51.6 °F 30.2 in WNW 3 mph 12 mph 67 % 0 in
13:32 63 °F 51.8 °F 30.2 in WSW 1 mph 11 mph 67 % 0 in
13:37 63.1 °F 51.6 °F 30.1 in WSW 4 mph 11 mph 66 % 0 in
13:42 63.1 °F 52 °F 30.1 in WSW 4 mph 11 mph 67 % 0 in
13:47 63.1 °F 52.3 °F 30.1 in West 4 mph 11 mph 68 % 0 in
13:52 63.1 °F 52 °F 30.1 in WNW 6 mph 11 mph 67 % 0 in
13:57 62.8 °F 52 °F 30.1 in WNW 6 mph 11 mph 68 % 0 in
14:02 62.6 °F 52.3 °F 30.1 in WSW 3 mph 13 mph 69 % 0 in
14:07 62.4 °F 52.2 °F 30.1 in West 5 mph 13 mph 69 % 0 in
14:12 62.4 °F 52.2 °F 30.1 in WSW 3 mph 10 mph 69 % 0 in
14:17 62.4 °F 52.2 °F 30.1 in West 4 mph 10 mph 69 % 0 in
14:27 62.8 °F 52 °F 30.1 in SW 5 mph 11 mph 68 % 0 in
14:32 62.8 °F 52.5 °F 30.1 in West 3 mph 12 mph 69 % 0 in
14:42 63 °F 51.8 °F 30.1 in WSW 7 mph 12 mph 67 % 0 in
14:47 63.5 °F 52 °F 30.1 in West 4 mph 9 mph 66 % 0 in
14:52 63.9 °F 51.8 °F 30.1 in West 3 mph 10 mph 65 % 0 in
14:57 63.9 °F 52.3 °F 30.1 in WSW 8 mph 10 mph 66 % 0 in
15:02 64.2 °F 52.2 °F 30.1 in West 4 mph 10 mph 65 % 0 in
15:12 64.8 °F 51.4 °F 30.1 in WNW 4 mph 12 mph 62 % 0 in
15:17 64.6 °F 51.6 °F 30.1 in WSW 6 mph 13 mph 63 % 0 in
15:22 64.8 °F 51.1 °F 30.1 in West 4 mph 13 mph 61 % 0 in
15:27 64.6 °F 51.6 °F 30.1 in West 3 mph 13 mph 63 % 0 in
15:32 64.8 °F 51.4 °F 30.1 in West 9 mph 12 mph 62 % 0 in
15:42 64.8 °F 51.4 °F 30.1 in WSW 4 mph 12 mph 62 % 0 in
15:52 64.9 °F 51.6 °F 30.1 in WSW 7 mph 11 mph 62 % 0 in
15:57 64.9 °F 51.6 °F 30.1 in SW 9 mph 11 mph 62 % 0 in
16:02 64.9 °F 51.6 °F 30.1 in WNW 5 mph 11 mph 62 % 0 in
16:07 65.5 °F 51.6 °F 30.1 in West 3 mph 11 mph 61 % 0 in
16:12 65.5 °F 51.6 °F 30.1 in NW 2 mph 11 mph 61 % 0 in
16:17 65.1 °F 51.3 °F 30.1 in WNW 4 mph 9 mph 61 % 0 in
16:22 64.9 °F 50.7 °F 30.1 in West 4 mph 9 mph 60 % 0 in
16:27 64.9 °F 51.1 °F 30.1 in WNW 5 mph 9 mph 61 % 0 in
16:32 65.1 °F 51.3 °F 30.1 in WNW 3 mph 10 mph 61 % 0 in
16:37 65.5 °F 51.3 °F 30.1 in West 2 mph 10 mph 60 % 0 in
16:42 65.7 °F 51.4 °F 30.1 in NW 1 mph 11 mph 60 % 0 in
16:47 65.7 °F 50.5 °F 30.1 in WNW 8 mph 11 mph 58 % 0 in
16:52 65.5 °F 50.7 °F 30.1 in WNW 3 mph 11 mph 59 % 0 in
16:57 65.7 °F 50.9 °F 30.1 in WNW 5 mph 11 mph 59 % 0 in
17:02 66.4 °F 50.7 °F 30.1 in WSW 6 mph 15 mph 57 % 0 in
17:07 66 °F 50.9 °F 30.1 in West 5 mph 15 mph 58 % 0 in
17:12 66 °F 50.9 °F 30.1 in WNW 3 mph 10 mph 58 % 0 in
17:17 66.2 °F 50.9 °F 30.1 in SW 2 mph 9 mph 58 % 0 in
17:22 66.4 °F 50.7 °F 30.1 in WSW 4 mph 9 mph 57 % 0 in
17:27 66.4 °F 50.7 °F 30.1 in WNW 5 mph 9 mph 57 % 0 in
17:32 66.6 °F 50.9 °F 30.1 in West 3 mph 9 mph 57 % 0 in
17:37 66.7 °F 50.5 °F 30.1 in WSW 6 mph 10 mph 56 % 0 in
17:42 66.7 °F 50.5 °F 30.1 in WSW 5 mph 10 mph 56 % 0 in
17:47 66.7 °F 50.5 °F 30.1 in West 1 mph 10 mph 56 % 0 in
17:52 66.7 °F 50.5 °F 30.1 in West 2 mph 8 mph 56 % 0 in
17:57 66.7 °F 51.1 °F 30.1 in WNW 7 mph 8 mph 57 % 0 in
18:02 66.6 °F 50.9 °F 30.1 in West 4 mph 8 mph 57 % 0 in
18:12 66.9 °F 51.3 °F 30.1 in West 2 mph 9 mph 57 % 0 in
18:17 66.7 °F 50.5 °F 30.1 in WNW 5 mph 9 mph 56 % 0 in
18:22 66.7 °F 50.5 °F 30.1 in WSW 8 mph 9 mph 56 % 0 in
18:27 66.6 °F 50.9 °F 30.1 in WSW 3 mph 9 mph 57 % 0 in
18:32 66.4 °F 50.7 °F 30.1 in West 3 mph 9 mph 57 % 0 in
18:37 66.2 °F 50.5 °F 30.1 in WNW 4 mph 9 mph 57 % 0 in
18:42 66.2 °F 50.5 °F 30.1 in West 3 mph 9 mph 57 % 0 in
18:47 66 °F 50.9 °F 30.1 in WNW 3 mph 7 mph 58 % 0 in
18:52 66 °F 50.9 °F 30.1 in West 2 mph 7 mph 58 % 0 in
18:57 66 °F 50.9 °F 30.1 in West 3 mph 7 mph 58 % 0 in
19:02 65.8 °F 50.7 °F 30.1 in WSW 3 mph 9 mph 58 % 0 in
19:07 65.8 °F 50.7 °F 30.1 in West 4 mph 9 mph 58 % 0 in
19:12 65.8 °F 50.7 °F 30.1 in WSW 2 mph 9 mph 58 % 0 in
19:17 65.8 °F 51.1 °F 30.1 in WSW 3 mph 8 mph 59 % 0 in
19:22 65.7 °F 50.9 °F 30.1 in West 4 mph 8 mph 59 % 0 in
19:27 65.7 °F 50.9 °F 30.1 in West 3 mph 6 mph 59 % 0 in
19:32 65.5 °F 51.3 °F 30.1 in West 2 mph 6 mph 60 % 0 in
19:37 65.5 °F 51.3 °F 30.1 in SW 2 mph 6 mph 60 % 0 in
19:42 65.3 °F 51.1 °F 30.1 in WSW 2 mph 6 mph 60 % 0 in
19:47 65.3 °F 51.1 °F 30.1 in WNW 2 mph 5 mph 60 % 0 in
19:52 65.1 °F 51.3 °F 30.1 in West 2 mph 5 mph 61 % 0 in
19:57 65.1 °F 51.3 °F 30.1 in West 3 mph 5 mph 61 % 0 in
20:02 64.9 °F 51.1 °F 30.1 in WNW 2 mph 6 mph 61 % 0 in
20:12 64.8 °F 51.4 °F 30.1 in WSW 3 mph 6 mph 62 % 0 in
20:17 64.6 °F 51.6 °F 30.1 in WSW 1 mph 4 mph 63 % 0 in
20:22 64.4 °F 51.6 °F 30.1 in WSW 4 mph 5 mph 63 % 0 in
20:27 64.2 °F 51.4 °F 30.1 in WSW 3 mph 5 mph 63 % 0 in
20:32 64 °F 51.6 °F 30.1 in WSW 2 mph 5 mph 64 % 0 in
20:42 63.7 °F 51.3 °F 30.1 in WSW 1 mph 5 mph 64 % 0 in
20:47 63.5 °F 51.4 °F 30.1 in WNW 2 mph 5 mph 65 % 0 in
20:52 63.3 °F 51.4 °F 30.1 in WSW 1 mph 4 mph 65 % 0 in
20:57 63.3 °F 51.4 °F 30.1 in WSW 1 mph 4 mph 65 % 0 in
21:02 63.1 °F 51.3 °F 30.1 in West 3 mph 4 mph 65 % 0 in
21:07 63.1 °F 51.6 °F 30.1 in West 1 mph 4 mph 66 % 0 in
21:12 63 °F 51.4 °F 30.1 in WNW 3 mph 4 mph 66 % 0 in
21:17 63 °F 51.1 °F 30.1 in West 3 mph 5 mph 65 % 0 in
21:22 63 °F 51.1 °F 30.1 in West 1 mph 5 mph 65 % 0 in
21:27 62.8 °F 51.3 °F 30.1 in West 3 mph 5 mph 66 % 0 in
21:32 62.8 °F 51.3 °F 30.1 in West 3 mph 5 mph 66 % 0 in
21:37 62.6 °F 51.1 °F 30.1 in WSW 3 mph 5 mph 66 % 0 in
21:42 62.4 °F 50.9 °F 30.1 in West 3 mph 6 mph 66 % 0 in
21:47 62.4 °F 50.9 °F 30.1 in West 3 mph 6 mph 66 % 0 in
21:52 62.2 °F 50.7 °F 30.1 in West 3 mph 6 mph 66 % 0 in
21:57 62.1 °F 50.5 °F 30.1 in West 2 mph 6 mph 66 % 0 in
22:02 61.9 °F 50.4 °F 30.1 in WNW 2 mph 6 mph 66 % 0 in
22:12 61.5 °F 49.6 °F 30.1 in West 1 mph 4 mph 65 % 0 in
22:17 61.5 °F 50 °F 30.1 in WNW 1 mph 3 mph 66 % 0 in
22:22 61.3 °F 49.8 °F 30.1 in Calm   3 mph 66 % 0 in
22:27 61.3 °F 49.8 °F 30.1 in Calm   2 mph 66 % 0 in
22:32 61 °F 49.5 °F 30.1 in Calm   1 mph 66 % 0 in
22:37 60.8 °F 49.5 °F 30.1 in Calm   1 mph 66 % 0 in
22:42 60.4 °F 49.5 °F 30.1 in Calm   1 mph 67 % 0 in
22:47 60.3 °F 49.6 °F 30.1 in Calm   1 mph 68 % 0 in
22:52 60.1 °F 49.5 °F 30.1 in Calm   1 mph 68 % 0 in
22:57 59.7 °F 49.5 °F 30.1 in Calm   1 mph 69 % 0 in
23:02 59.9 °F 49.6 °F 30.1 in SW 1 mph 1 mph 69 % 0 in
23:07 59.9 °F 49.6 °F 30.1 in SSW 1 mph 2 mph 69 % 0 in
23:12 59.7 °F 50 °F 30.1 in SW 2 mph 2 mph 70 % 0 in
23:22 59.7 °F 50.4 °F 30.1 in SW 2 mph 3 mph 71 % 0 in
23:27 59.5 °F 50.5 °F 30.1 in Calm   3 mph 72 % 0 in
23:32 59.5 °F 50.5 °F 30.1 in Calm   2 mph 72 % 0 in
23:37 59.7 °F 50.4 °F 30.1 in Calm   2 mph 71 % 0 in
23:42 59.7 °F 50.4 °F 30.1 in WSW 1 mph 2 mph 71 % 0 in
23:47 59.9 °F 50.5 °F 30.1 in West 1 mph 3 mph 71 % 0 in
23:52 59.9 °F 50.5 °F 30.1 in Calm   3 mph 71 % 0 in
23:57 60.1 °F 50.7 °F 30.1 in Calm   3 mph 71 % 0 in
Meteo18
Compliments of Weather Underground - 4 mb

Script developed by  Jim McMurry - jmcmurry@mwt.net Adapted for the template by  Wim van der Kuil - Leuven-Template.eu

You find our weather info also at:

European Weather Network

Weather Underground

Equipment we use:

Weather-station
Davis Vue

Weather-program
Meteohub

Weather-server
Raspberry PI 2 B+

Provider
1 and 1

Davis Vue

Meteohub

Raspberry PI 2 B+

1 and 1